Location: Baia Mare
(47.6567°N, 23.5850°E)
Time: 12:43:30
(UTC+02:00)

ISS - Pass Details

Date: 09 January 2019
Orbit: 404 x 407 km, 51.6° (Epoch: 16 January)

Event Time Altitude Azimuth Distance (km) Brightness Sun altitude
Exits shadow 07:00:25 18° 271° (W) 1,076 -2.3 -11.7°
Maximum altitude 07:02:18 33° 216° (SW) 704 -2.8 -11.4°
Drops below altitude 10° 07:05:18 10° 150° (SSE) 1,462 -0.2 -10.9°
Sets 07:07:29 0° 140° (SE) 2,318 1.2 -10.6°
